Nashua, NH

2:15 PM EST on February 10, 2016 (GMT -0500)
Boire

Weather History for KASH - October, 2012

Change the Weather History Date:

Friday, October 19, 2012

  Actual Average Record
Temperature  
Mean Temperature 56 °F -  
Max Temperature 65 °F 58 °F 83 °F (1963)
Min Temperature 48 °F 35 °F 15 °F (1974)
Degree Days  
Heating Degree Days 8    
Growing Degree Days 6 (Base 50)    
Moisture  
Dew Point 56 °F    
Average Humidity 92    
Maximum Humidity 100    
Minimum Humidity 67    
Precipitation  
Precipitation 0.34 in - - ()
Sea Level Pressure  
Sea Level Pressure 29.91 in    
Wind  
Wind Speed 4 mph (ESE)    
Max Wind Speed 16 mph    
Max Gust Speed 30 mph    
Visibility 5 miles    
Events Rain , Thunderstorm    
Averages and records for this station are not official NWS values.
T = Trace of Precipitation, MM = Missing Value Source: NWS Daily Summary

Daily Weather History Graph

Daily Weather History Graph

Search for Another Location

Airport or City:

Trip Planner

Search our weather history database for the weather conditions in past years. The results will help you decide how hot, cold, wet, or windy it might be!

Date:

Astronomy

Oct. 19, 2012 Rise Set
Actual Time 7:04 AM EDT 5:56 PM EDT
Civil Twilight 6:35 AM EDT 6:25 PM EDT
Nautical Twilight 6:03 AM EDT 6:58 PM EDT
Astronomical Twilight 5:30 AM EDT 7:30 PM EDT
Moon 11:49 AM EDT (10/19) 9:26 PM EDT (10/19)
Length of Visible Light 11h 49m
Length of Day
10h 51m
Waxing Crescent, 23% of the Moon is Illuminated
Oct 19
Waxing Crescent
Oct 21
First Quarter
Oct 29
Full
Nov 6
Last Quarter
Nov 13
New

Hourly Weather History & Observations

Time (EDT) Temp. Dew Point Humidity Pressure Visibility Wind Dir Wind Speed Gust Speed Precip Events Conditions
12:08 AM 48.2 °F 44.6 °F 87% 30.10 in 10.0 mi NW 3.5 mph - N/A   Mostly Cloudy
12:51 AM 48.9 °F 45.9 °F 89% 30.10 in 10.0 mi WNW 3.5 mph - N/A   Overcast
1:51 AM 48.9 °F 45.9 °F 89% 30.10 in 10.0 mi Calm Calm - N/A   Overcast
2:51 AM 50.9 °F 46.9 °F 86% 30.11 in 10.0 mi NW 5.8 mph - N/A   Overcast
3:51 AM 50.9 °F 47.8 °F 89% 30.08 in 10.0 mi NNE 3.5 mph - N/A   Overcast
4:51 AM 50.9 °F 48.9 °F 93% 30.07 in 10.0 mi NW 3.5 mph - N/A   Overcast
5:20 AM 51.8 °F 50.0 °F 94% 30.05 in 9.0 mi Calm Calm - N/A   Overcast
5:51 AM 52.9 °F 50.9 °F 93% 30.05 in 7.0 mi Calm Calm - 0.00 in Rain Light Rain
6:32 AM 53.6 °F 51.8 °F 94% 30.05 in 6.0 mi NW 3.5 mph - 0.00 in Rain Light Rain
6:51 AM 52.9 °F 50.9 °F 93% 30.06 in 2.5 mi Calm Calm - 0.01 in Rain Light Rain
7:00 AM 53.6 °F 51.8 °F 94% 30.05 in 4.0 mi Calm Calm - 0.00 in Rain Light Rain
7:22 AM 53.6 °F 51.8 °F 94% 30.04 in 3.0 mi Calm Calm - 0.00 in Rain Light Rain
7:42 AM 53.6 °F 51.8 °F 94% 30.03 in 5.0 mi Variable 3.5 mph - 0.00 in Rain Light Rain
7:51 AM 52.9 °F 52.0 °F 97% 30.05 in 1.8 mi Calm Calm - 0.01 in Rain Light Rain
7:55 AM 53.6 °F 51.8 °F 94% 30.03 in 3.0 mi Calm Calm - 0.00 in Rain Light Rain
8:14 AM 53.6 °F 53.6 °F 100% 30.04 in 2.0 mi Calm Calm - 0.00 in Rain Light Rain
8:30 AM 53.6 °F 53.6 °F 100% 30.03 in 4.0 mi Calm Calm - 0.00 in Rain Light Rain
8:51 AM 54.9 °F 52.9 °F 93% 30.04 in 6.0 mi Calm Calm - 0.00 in Rain Light Rain
9:23 AM 55.4 °F 53.6 °F 94% 30.03 in 6.0 mi Calm Calm - 0.00 in   Mostly Cloudy
9:51 AM 55.9 °F 54.0 °F 93% 30.04 in 6.0 mi East 3.5 mph - 0.00 in   Mostly Cloudy
10:51 AM 57.9 °F 54.9 °F 90% 30.00 in 10.0 mi East 6.9 mph - N/A   Mostly Cloudy
11:00 AM 57.2 °F 55.4 °F 94% 29.98 in 10.0 mi ENE 4.6 mph - N/A   Mostly Cloudy
11:51 AM 61.9 °F 56.8 °F 84% 29.98 in 10.0 mi ESE 5.8 mph - 0.00 in   Mostly Cloudy
12:51 PM 63.9 °F 52.9 °F 67% 29.94 in 9.0 mi SE 13.8 mph - 0.01 in   Scattered Clouds
1:51 PM 65.8 °F 55.9 °F 70% 29.91 in 10.0 mi ESE 15.0 mph 29.9 mph N/A   Overcast
2:51 PM 63.9 °F 57.9 °F 81% 29.90 in 10.0 mi ESE 16.1 mph 28.8 mph 0.00 in   Overcast
3:15 PM 64.4 °F 57.2 °F 77% 29.87 in 10.0 mi ESE 15.0 mph - 0.00 in Rain Light Rain
3:51 PM 61.9 °F 59.0 °F 90% 29.88 in 2.0 mi ESE 12.7 mph 25.3 mph 0.01 in Rain Light Rain
4:20 PM 62.6 °F 60.8 °F 94% 29.85 in 7.0 mi ESE 12.7 mph 18.4 mph 0.01 in Rain Light Rain
4:32 PM 62.6 °F 60.8 °F 94% 29.84 in 7.0 mi ESE 11.5 mph 19.6 mph 0.01 in Rain Light Rain
4:51 PM 61.9 °F 59.9 °F 93% 29.85 in 10.0 mi ESE 10.4 mph 18.4 mph 0.01 in   Overcast
5:51 PM 61.9 °F 59.9 °F 93% 29.82 in 7.0 mi ESE 8.1 mph - 0.02 in Rain Light Rain
6:26 PM 62.6 °F 60.8 °F 94% 29.78 in 2.0 mi ESE 11.5 mph - 0.01 in Rain Light Rain
6:43 PM 62.6 °F 60.8 °F 94% 29.78 in 2.0 mi East 11.5 mph 20.7 mph 0.02 in Rain Light Rain
6:51 PM 61.9 °F 59.9 °F 93% 29.78 in 2.0 mi East 11.5 mph 20.7 mph 0.03 in Rain Light Rain
7:11 PM 62.6 °F 60.8 °F 94% 29.76 in 1.8 mi ESE 10.4 mph 18.4 mph 0.02 in Rain , Thunderstorm Light Thunderstorms and Rain
7:18 PM 62.6 °F 60.8 °F 94% 29.75 in 2.0 mi ESE 10.4 mph 18.4 mph 0.14 in Rain , Thunderstorm Heavy Thunderstorms and Rain
7:51 PM 63.0 °F 61.0 °F 93% 29.77 in 2.0 mi SE 5.8 mph - 0.20 in Rain Light Rain
8:51 PM 63.0 °F 61.0 °F 93% 29.75 in 2.5 mi SE 5.8 mph - 0.03 in   Overcast
9:11 PM 62.6 °F 60.8 °F 94% 29.74 in 2.0 mi SE 4.6 mph - N/A   Scattered Clouds
9:41 PM 62.6 °F 60.8 °F 94% 29.75 in 1.8 mi SE 3.5 mph - 0.01 in   Mostly Cloudy
9:51 PM 61.9 °F 61.0 °F 97% 29.75 in 1.5 mi SE 3.5 mph - 0.01 in   Mostly Cloudy
10:02 PM 62.6 °F 60.8 °F 94% 29.74 in 1.5 mi SE 3.5 mph - N/A   Mostly Cloudy
10:12 PM 62.6 °F 60.8 °F 94% 29.75 in 1.2 mi Calm Calm - N/A   Mostly Cloudy
10:27 PM 62.6 °F 60.8 °F 94% 29.74 in 1.5 mi Calm Calm - N/A   Mostly Cloudy
10:41 PM 62.6 °F 60.8 °F 94% 29.75 in 1.2 mi Calm Calm - N/A   Mostly Cloudy
10:51 PM 61.9 °F 61.0 °F 97% 29.76 in 1.8 mi Calm Calm - N/A   Clear
10:58 PM 62.6 °F 60.8 °F 94% 29.75 in 2.5 mi SE 3.5 mph - N/A   Partly Cloudy
11:23 PM 62.6 °F 60.8 °F 94% 29.75 in 2.0 mi Calm Calm - N/A   Mostly Cloudy
11:31 PM 62.6 °F 60.8 °F 94% 29.75 in 2.0 mi Calm Calm - N/A   Scattered Clouds
11:44 PM 62.6 °F 60.8 °F 94% 29.75 in 1.2 mi Calm Calm - N/A   Mostly Cloudy
11:51 PM 61.9 °F 61.0 °F 97% 29.75 in 1.5 mi Calm Calm - N/A   Clear